Time,TemperatureF,DewpointF,PressureIn,WindDirection,WindDirectionDegrees,WindSpeedMPH,WindSpeedGustMPH,Humidity,HourlyPrecipIn,Conditions,Clouds,dailyrainin,SoftwareType,DateUTC
2013-01-11 00:00:00,60.5,58.5,30.27,SE,139,5.0,6.0,93,0.00,,---,0.00,VWS V14.00,2013-01-11 05:00:00,
2013-01-11 00:03:00,60.4,58.4,30.27,SSE,148,4.0,8.0,93,0.00,,---,0.00,VWS V14.00,2013-01-11 05:03:00,
2013-01-11 00:08:00,60.4,58.4,30.27,SE,136,2.0,8.0,93,0.00,,---,0.00,VWS V14.00,2013-01-11 05:08:00,
2013-01-11 00:13:00,60.4,58.4,30.27,SSE,149,2.0,9.0,93,0.00,,---,0.00,VWS V14.00,2013-01-11 05:13:00,
2013-01-11 00:18:00,60.4,58.4,30.26,SSE,148,4.0,9.0,93,0.00,,---,0.00,VWS V14.00,2013-01-11 05:18:00,
2013-01-11 00:23:00,60.4,58.4,30.26,SSE,149,0.0,9.0,93,0.00,,---,0.00,VWS V14.00,2013-01-11 05:23:00,
2013-01-11 00:28:00,60.3,58.3,30.26,South,191,3.0,3.0,93,0.00,,---,0.00,VWS V14.00,2013-01-11 05:28:00,
2013-01-11 00:33:00,60.3,58.6,30.26,SSE,148,0.0,8.0,94,0.00,,---,0.00,VWS V14.00,2013-01-11 05:33:00,
2013-01-11 00:38:00,60.2,58.5,30.26,SSE,149,6.0,8.0,94,0.00,,---,0.00,VWS V14.00,2013-01-11 05:38:00,
2013-01-11 00:43:00,60.2,58.5,30.26,SSE,151,0.0,8.0,94,0.00,,---,0.00,VWS V14.00,2013-01-11 05:43:00,
2013-01-11 00:48:00,60.2,58.5,30.26,SE,126,0.0,8.0,94,0.00,,---,0.00,VWS V14.00,2013-01-11 05:48:00,
2013-01-11 00:53:00,60.2,58.5,30.26,SSE,155,4.0,8.0,94,0.00,,---,0.00,VWS V14.00,2013-01-11 05:53:00,
2013-01-11 00:58:00,60.2,58.5,30.26,SSE,152,4.0,5.0,94,0.00,,---,0.00,VWS V14.00,2013-01-11 05:58:00,
2013-01-11 01:03:00,60.2,58.8,30.26,SSE,148,0.0,6.0,95,0.00,,---,0.00,VWS V14.00,2013-01-11 06:03:00,
2013-01-11 01:08:00,60.2,58.8,30.26,SE,137,6.0,9.0,95,0.00,,---,0.00,VWS V14.00,2013-01-11 06:08:00,
2013-01-11 01:13:00,60.2,58.8,30.26,SSE,149,0.0,9.0,95,0.00,,---,0.00,VWS V14.00,2013-01-11 06:13:00,
2013-01-11 01:18:00,60.2,58.8,30.26,SSE,150,5.0,9.0,95,0.00,,---,0.00,VWS V14.00,2013-01-11 06:18:00,
2013-01-11 01:23:00,60.2,58.8,30.26,SSE,150,4.0,9.0,95,0.00,,---,0.00,VWS V14.00,2013-01-11 06:23:00,
2013-01-11 01:28:00,60.2,58.8,30.26,SE,140,2.0,6.0,95,0.00,,---,0.00,VWS V14.00,2013-01-11 06:28:00,
2013-01-11 01:33:00,60.2,58.8,30.26,SE,140,2.0,6.0,95,0.00,,---,0.00,VWS V14.00,2013-01-11 06:33:00,
2013-01-11 01:38:00,60.2,58.8,30.26,SSE,153,6.0,10.0,95,0.00,,---,0.00,VWS V14.00,2013-01-11 06:38:00,
2013-01-11 01:43:00,60.2,58.8,30.26,SSE,153,1.0,10.0,95,0.00,,---,0.00,VWS V14.00,2013-01-11 06:43:00,
2013-01-11 01:48:00,60.2,58.8,30.26,SSE,155,1.0,10.0,95,0.00,,---,0.00,VWS V14.00,2013-01-11 06:48:00,
2013-01-11 01:53:00,60.2,58.8,30.26,SSE,150,4.0,10.0,95,0.00,,---,0.00,VWS V14.00,2013-01-11 06:53:00,
2013-01-11 01:58:00,60.3,58.9,30.26,SSE,162,4.0,4.0,95,0.00,,---,0.00,VWS V14.00,2013-01-11 06:58:00,
2013-01-11 02:03:00,60.3,58.9,30.25,SSE,151,1.0,9.0,95,0.00,,---,0.00,VWS V14.00,2013-01-11 07:03:00,
2013-01-11 02:08:00,60.3,58.9,30.26,South,169,1.0,9.0,95,0.00,,---,0.00,VWS V14.00,2013-01-11 07:08:00,
2013-01-11 02:13:00,60.3,58.9,30.26,SSE,152,1.0,9.0,95,0.00,,---,0.00,VWS V14.00,2013-01-11 07:13:00,
2013-01-11 02:18:00,60.3,59.2,30.26,South,187,3.0,9.0,96,0.00,,---,0.00,VWS V14.00,2013-01-11 07:18:00,
2013-01-11 02:23:00,60.4,59.3,30.26,South,171,1.0,9.0,96,0.00,,---,0.00,VWS V14.00,2013-01-11 07:23:00,
2013-01-11 02:28:00,60.4,59.3,30.26,South,183,0.0,1.0,96,0.00,,---,0.00,VWS V14.00,2013-01-11 07:28:00,
2013-01-11 02:33:00,60.4,59.3,30.26,SSE,154,4.0,7.0,96,0.00,,---,0.00,VWS V14.00,2013-01-11 07:33:00,
2013-01-11 02:38:00,60.4,59.3,30.26,SSE,161,1.0,8.0,96,0.00,,---,0.00,VWS V14.00,2013-01-11 07:38:00,
2013-01-11 02:43:00,60.4,59.3,30.26,SSE,162,1.0,8.0,96,0.00,,---,0.00,VWS V14.00,2013-01-11 07:43:00,
2013-01-11 02:48:00,60.5,59.4,30.25,SSE,154,0.0,8.0,96,0.00,,---,0.00,VWS V14.00,2013-01-11 07:48:00,
2013-01-11 02:53:00,60.5,59.4,30.25,SE,144,0.0,8.0,96,0.00,,---,0.00,VWS V14.00,2013-01-11 07:53:00,
2013-01-11 02:58:00,60.5,59.4,30.25,South,170,4.0,6.0,96,0.00,,---,0.00,VWS V14.00,2013-01-11 07:58:00,
2013-01-11 03:03:00,60.6,59.5,30.25,SE,144,1.0,8.0,96,0.00,,---,0.00,VWS V14.00,2013-01-11 08:03:00,
2013-01-11 03:08:00,60.6,59.5,30.25,SSE,156,5.0,8.0,96,0.00,,---,0.00,VWS V14.00,2013-01-11 08:08:00,
2013-01-11 03:13:00,60.6,59.5,30.25,South,171,4.0,8.0,96,0.00,,---,0.00,VWS V14.00,2013-01-11 08:13:00,
2013-01-11 03:18:00,60.6,59.5,30.24,SSE,147,2.0,9.0,96,0.00,,---,0.00,VWS V14.00,2013-01-11 08:18:00,
2013-01-11 03:23:00,60.6,59.5,30.24,SSE,149,2.0,9.0,96,0.00,,---,0.00,VWS V14.00,2013-01-11 08:23:00,
2013-01-11 03:28:00,60.6,59.5,30.24,SSE,155,2.0,4.0,96,0.00,,---,0.00,VWS V14.00,2013-01-11 08:28:00,
2013-01-11 03:33:00,60.6,59.5,30.24,SSE,160,4.0,6.0,96,0.00,,---,0.00,VWS V14.00,2013-01-11 08:33:00,
2013-01-11 03:38:00,60.6,59.5,30.24,South,171,2.0,7.0,96,0.00,,---,0.00,VWS V14.00,2013-01-11 08:38:00,
2013-01-11 03:43:00,60.6,59.5,30.23,South,171,1.0,7.0,96,0.00,,---,0.00,VWS V14.00,2013-01-11 08:43:00,
2013-01-11 03:48:00,60.6,59.5,30.23,South,179,1.0,7.0,96,0.00,,---,0.00,VWS V14.00,2013-01-11 08:48:00,
2013-01-11 03:53:00,60.6,59.5,30.23,South,178,1.0,7.0,96,0.00,,---,0.00,VWS V14.00,2013-01-11 08:53:00,
2013-01-11 03:58:00,60.6,59.5,30.23,SE,144,2.0,6.0,96,0.00,,---,0.00,VWS V14.00,2013-01-11 08:58:00,
2013-01-11 04:03:00,60.5,59.4,30.22,SSE,159,5.0,9.0,96,0.00,,---,0.00,VWS V14.00,2013-01-11 09:03:00,
2013-01-11 04:08:00,60.5,59.4,30.22,SE,144,6.0,9.0,96,0.00,,---,0.00,VWS V14.00,2013-01-11 09:08:00,
2013-01-11 04:13:00,60.5,59.4,30.22,South,180,0.0,9.0,96,0.00,,---,0.00,VWS V14.00,2013-01-11 09:13:00,
2013-01-11 04:18:00,60.5,59.4,30.22,SSE,166,0.0,9.0,96,0.00,,---,0.00,VWS V14.00,2013-01-11 09:18:00,
2013-01-11 04:23:00,60.5,59.4,30.22,South,179,0.0,9.0,96,0.00,,---,0.00,VWS V14.00,2013-01-11 09:23:00,
2013-01-11 04:28:00,60.5,59.4,30.22,SSE,157,0.0,4.0,96,0.00,,---,0.00,VWS V14.00,2013-01-11 09:28:00,
2013-01-11 04:33:00,60.4,59.3,30.21,SSE,156,0.0,8.0,96,0.00,,---,0.00,VWS V14.00,2013-01-11 09:33:00,
2013-01-11 04:38:00,60.5,59.4,30.21,SE,144,6.0,8.0,96,0.00,,---,0.00,VWS V14.00,2013-01-11 09:38:00,
2013-01-11 04:43:00,60.5,59.4,30.21,SE,144,2.0,8.0,96,0.00,,---,0.00,VWS V14.00,2013-01-11 09:43:00,
2013-01-11 04:48:00,60.5,59.4,30.21,South,173,0.0,8.0,96,0.00,,---,0.00,VWS V14.00,2013-01-11 09:48:00,
2013-01-11 04:53:00,60.4,59.3,30.21,South,173,4.0,8.0,96,0.00,,---,0.00,VWS V14.00,2013-01-11 09:53:00,
2013-01-11 04:58:00,60.5,59.4,30.21,SSE,156,4.0,4.0,96,0.00,,---,0.00,VWS V14.00,2013-01-11 09:58:00,
2013-01-11 05:03:00,60.5,59.4,30.20,South,176,0.0,8.0,96,0.00,,---,0.00,VWS V14.00,2013-01-11 10:03:00,
2013-01-11 05:08:00,60.5,59.4,30.20,SE,144,2.0,8.0,96,0.00,,---,0.00,VWS V14.00,2013-01-11 10:08:00,
2013-01-11 05:13:00,60.5,59.4,30.20,SSE,163,0.0,8.0,96,0.00,,---,0.00,VWS V14.00,2013-01-11 10:13:00,
2013-01-11 05:18:00,60.5,59.4,30.19,South,178,1.0,9.0,96,0.00,,---,0.00,VWS V14.00,2013-01-11 10:18:00,
2013-01-11 05:23:00,60.5,59.4,30.19,SSE,147,5.0,9.0,96,0.00,,---,0.00,VWS V14.00,2013-01-11 10:23:00,
2013-01-11 05:28:00,60.5,59.4,30.19,SSE,152,7.0,9.0,96,0.00,,---,0.00,VWS V14.00,2013-01-11 10:28:00,
2013-01-11 05:33:00,60.5,59.4,30.18,SSE,163,6.0,9.0,96,0.00,,---,0.00,VWS V14.00,2013-01-11 10:33:00,
2013-01-11 05:38:00,60.5,59.4,30.18,SSE,160,4.0,10.0,96,0.00,,---,0.00,VWS V14.00,2013-01-11 10:38:00,
2013-01-11 05:43:00,60.5,59.4,30.18,South,178,6.0,10.0,96,0.00,,---,0.00,VWS V14.00,2013-01-11 10:43:00,
2013-01-11 05:48:00,60.5,59.4,30.18,SSW,198,3.0,10.0,96,0.01,,---,0.01,VWS V14.00,2013-01-11 10:48:00,
2013-01-11 05:53:00,60.6,59.5,30.19,SSW,195,1.0,10.0,96,0.01,,---,0.01,VWS V14.00,2013-01-11 10:53:00,
2013-01-11 05:58:00,60.6,59.5,30.20,SSE,167,0.0,0.0,96,0.01,,---,0.01,VWS V14.00,2013-01-11 10:58:00,
2013-01-11 06:03:00,60.6,59.8,30.20,SE,138,6.0,7.0,97,0.01,,---,0.01,VWS V14.00,2013-01-11 11:03:00,
2013-01-11 06:08:00,60.6,59.8,30.20,SSW,200,2.0,10.0,97,0.01,,---,0.01,VWS V14.00,2013-01-11 11:08:00,
2013-01-11 06:13:00,60.6,59.8,30.20,SSW,200,0.0,10.0,97,0.01,,---,0.01,VWS V14.00,2013-01-11 11:13:00,
2013-01-11 06:18:00,60.6,59.8,30.20,SE,141,5.0,10.0,97,0.01,,---,0.01,VWS V14.00,2013-01-11 11:18:00,
2013-01-11 06:23:00,60.7,59.8,30.21,SE,144,0.0,10.0,97,0.01,,---,0.01,VWS V14.00,2013-01-11 11:23:00,
2013-01-11 06:28:00,60.7,59.8,30.21,SSE,161,5.0,5.0,97,0.01,,---,0.01,VWS V14.00,2013-01-11 11:28:00,
2013-01-11 06:33:00,60.7,59.8,30.20,SE,140,7.0,7.0,97,0.01,,---,0.01,VWS V14.00,2013-01-11 11:33:00,
2013-01-11 06:38:00,60.9,60.0,30.20,South,173,4.0,7.0,97,0.01,,---,0.01,VWS V14.00,2013-01-11 11:38:00,
2013-01-11 06:43:00,60.9,60.0,30.20,SSE,161,0.0,7.0,97,0.01,,---,0.01,VWS V14.00,2013-01-11 11:43:00,
2013-01-11 06:48:00,61.0,60.2,30.21,SSE,161,4.0,7.0,97,0.01,,---,0.01,VWS V14.00,2013-01-11 11:48:00,
2013-01-11 06:53:00,61.0,60.2,30.20,SSE,159,0.0,7.0,97,0.01,,---,0.01,VWS V14.00,2013-01-11 11:53:00,
2013-01-11 06:58:00,61.0,60.2,30.21,South,169,4.0,4.0,97,0.00,,---,0.01,VWS V14.00,2013-01-11 11:58:00,
2013-01-11 07:03:00,61.0,60.2,30.21,SSE,156,1.0,8.0,97,0.00,,---,0.01,VWS V14.00,2013-01-11 12:03:00,
2013-01-11 07:08:00,61.0,60.2,30.21,SSE,156,2.0,8.0,97,0.00,,---,0.01,VWS V14.00,2013-01-11 12:08:00,
2013-01-11 07:13:00,61.1,60.2,30.22,SSE,156,0.0,8.0,97,0.00,,---,0.01,VWS V14.00,2013-01-11 12:13:00,
2013-01-11 07:18:00,61.0,59.9,30.22,SSE,156,0.0,8.0,96,0.00,,---,0.01,VWS V14.00,2013-01-11 12:18:00,
2013-01-11 07:23:00,61.1,60.2,30.22,SSE,156,0.0,8.0,97,0.00,,---,0.01,VWS V14.00,2013-01-11 12:23:00,
2013-01-11 07:28:00,61.1,60.2,30.22,SSE,156,0.0,0.0,97,0.00,,---,0.01,VWS V14.00,2013-01-11 12:28:00,
2013-01-11 07:33:00,61.1,60.2,30.22,SSE,156,0.0,4.0,97,0.00,,---,0.01,VWS V14.00,2013-01-11 12:33:00,
2013-01-11 07:38:00,61.1,60.2,30.22,SSE,156,2.0,4.0,97,0.00,,---,0.01,VWS V14.00,2013-01-11 12:38:00,
2013-01-11 07:43:00,61.2,60.3,30.22,SSE,156,0.0,5.0,97,0.00,,---,0.01,VWS V14.00,2013-01-11 12:43:00,
2013-01-11 07:48:00,61.2,60.3,30.22,SSE,156,1.0,5.0,97,0.00,,---,0.01,VWS V14.00,2013-01-11 12:48:00,
2013-01-11 07:53:00,61.2,60.3,30.22,SSE,156,1.0,5.0,97,0.00,,---,0.01,VWS V14.00,2013-01-11 12:53:00,
2013-01-11 07:58:00,61.3,60.4,30.22,SSE,156,0.0,2.0,97,0.00,,---,0.01,VWS V14.00,2013-01-11 12:58:00,
2013-01-11 08:03:00,61.3,60.4,30.22,SSE,156,4.0,4.0,97,0.00,,---,0.01,VWS V14.00,2013-01-11 13:03:00,
2013-01-11 08:08:00,61.3,60.4,30.22,SSE,167,0.0,5.0,97,0.00,,---,0.01,VWS V14.00,2013-01-11 13:08:00,
2013-01-11 08:13:00,61.3,60.4,30.23,SSE,167,1.0,5.0,97,0.00,,---,0.01,VWS V14.00,2013-01-11 13:13:00,
2013-01-11 08:18:00,61.4,60.5,30.23,SSE,167,0.0,5.0,97,0.00,,---,0.01,VWS V14.00,2013-01-11 13:18:00,
2013-01-11 08:23:00,61.4,60.5,30.23,SSE,167,0.0,5.0,97,0.00,,---,0.01,VWS V14.00,2013-01-11 13:23:00,
2013-01-11 08:28:00,61.4,60.5,30.23,SSE,167,4.0,4.0,97,0.00,,---,0.01,VWS V14.00,2013-01-11 13:28:00,
2013-01-11 08:33:00,61.4,60.5,30.23,SSE,167,1.0,4.0,97,0.00,,---,0.01,VWS V14.00,2013-01-11 13:33:00,
2013-01-11 08:38:00,61.4,60.5,30.23,SSE,167,4.0,4.0,97,0.00,,---,0.01,VWS V14.00,2013-01-11 13:38:00,
2013-01-11 08:43:00,61.5,60.6,30.23,SSE,167,2.0,6.0,97,0.00,,---,0.01,VWS V14.00,2013-01-11 13:43:00,
2013-01-11 08:48:00,61.6,60.7,30.23,SSE,167,0.0,6.0,97,0.00,,---,0.01,VWS V14.00,2013-01-11 13:48:00,
2013-01-11 08:53:00,61.7,60.8,30.23,SSE,167,0.0,6.0,97,0.00,,---,0.01,VWS V14.00,2013-01-11 13:53:00,
2013-01-11 08:58:00,61.8,60.9,30.23,SSE,167,0.0,0.0,97,0.00,,---,0.01,VWS V14.00,2013-01-11 13:58:00,
2013-01-11 09:03:00,61.9,61.0,30.23,SSE,167,0.0,4.0,97,0.00,,---,0.01,VWS V14.00,2013-01-11 14:03:00,
2013-01-11 09:08:00,62.0,61.1,30.23,SSE,167,1.0,4.0,97,0.00,,---,0.01,VWS V14.00,2013-01-11 14:08:00,
2013-01-11 09:13:00,62.1,61.2,30.24,SSE,167,2.0,5.0,97,0.00,,---,0.01,VWS V14.00,2013-01-11 14:13:00,
2013-01-11 09:18:00,62.2,61.3,30.24,SSE,168,0.0,5.0,97,0.00,,---,0.01,VWS V14.00,2013-01-11 14:18:00,
2013-01-11 09:23:00,62.2,61.3,30.24,SSE,168,1.0,5.0,97,0.00,,---,0.01,VWS V14.00,2013-01-11 14:23:00,
2013-01-11 09:28:00,62.3,61.4,30.24,SSE,165,1.0,2.0,97,0.00,,---,0.01,VWS V14.00,2013-01-11 14:28:00,
2013-01-11 09:33:00,62.3,61.4,30.24,SSE,165,0.0,5.0,97,0.00,,---,0.01,VWS V14.00,2013-01-11 14:33:00,
2013-01-11 09:38:00,62.3,61.4,30.23,SSE,153,2.0,8.0,97,0.00,,---,0.01,VWS V14.00,2013-01-11 14:38:00,
2013-01-11 09:43:00,62.3,61.4,30.24,SSE,153,1.0,8.0,97,0.00,,---,0.01,VWS V14.00,2013-01-11 14:43:00,
2013-01-11 09:48:00,62.3,61.4,30.24,SSE,154,0.0,8.0,97,0.00,,---,0.01,VWS V14.00,2013-01-11 14:48:00,
2013-01-11 09:53:00,62.3,61.4,30.24,SSE,159,0.0,8.0,97,0.00,,---,0.01,VWS V14.00,2013-01-11 14:53:00,
2013-01-11 09:58:00,62.3,61.4,30.24,SSE,159,0.0,0.0,97,0.00,,---,0.01,VWS V14.00,2013-01-11 14:58:00,
2013-01-11 10:03:00,62.4,61.5,30.24,SSE,159,4.0,6.0,97,0.00,,---,0.01,VWS V14.00,2013-01-11 15:03:00,
2013-01-11 10:08:00,62.4,61.5,30.23,SSW,198,0.0,6.0,97,0.00,,---,0.01,VWS V14.00,2013-01-11 15:08:00,
2013-01-11 10:13:00,62.5,61.6,30.24,South,179,0.0,6.0,97,0.00,,---,0.01,VWS V14.00,2013-01-11 15:13:00,
2013-01-11 10:18:00,62.6,61.7,30.23,South,171,2.0,6.0,97,0.00,,---,0.01,VWS V14.00,2013-01-11 15:18:00,
2013-01-11 10:23:00,62.7,61.8,30.23,South,171,0.0,6.0,97,0.00,,---,0.01,VWS V14.00,2013-01-11 15:23:00,
2013-01-11 10:28:00,62.9,62.0,30.23,South,173,0.0,2.0,97,0.00,,---,0.01,VWS V14.00,2013-01-11 15:28:00,
2013-01-11 10:33:00,63.0,62.1,30.24,South,173,0.0,5.0,97,0.00,,---,0.01,VWS V14.00,2013-01-11 15:33:00,
2013-01-11 10:38:00,63.2,62.3,30.23,South,173,0.0,5.0,97,0.00,,---,0.01,VWS V14.00,2013-01-11 15:38:00,
2013-01-11 10:43:00,63.7,62.8,30.23,South,172,4.0,5.0,97,0.00,,---,0.01,VWS V14.00,2013-01-11 15:43:00,
2013-01-11 10:48:00,63.9,63.0,30.23,SSW,209,2.0,5.0,97,0.00,,---,0.01,VWS V14.00,2013-01-11 15:48:00,
2013-01-11 10:53:00,64.1,63.2,30.23,SSW,199,0.0,5.0,97,0.00,,---,0.01,VWS V14.00,2013-01-11 15:53:00,
2013-01-11 10:58:00,64.4,63.5,30.24,SSW,207,0.0,1.0,97,0.00,,---,0.01,VWS V14.00,2013-01-11 15:58:00,
2013-01-11 11:03:00,64.5,63.6,30.24,SW,225,1.0,3.0,97,0.00,,---,0.01,VWS V14.00,2013-01-11 16:03:00,
2013-01-11 11:08:00,64.6,63.7,30.23,SSW,211,2.0,6.0,97,0.00,,---,0.01,VWS V14.00,2013-01-11 16:08:00,
2013-01-11 11:13:00,64.7,63.8,30.23,WSW,237,1.0,6.0,97,0.00,,---,0.01,VWS V14.00,2013-01-11 16:13:00,
2013-01-11 11:18:00,64.8,63.6,30.22,SSW,201,2.0,6.0,96,0.00,,---,0.01,VWS V14.00,2013-01-11 16:18:00,
2013-01-11 11:23:00,65.0,63.5,30.22,SSW,209,3.0,6.0,95,0.00,,---,0.01,VWS V14.00,2013-01-11 16:23:00,
2013-01-11 11:28:00,65.3,63.5,30.22,SSW,199,3.0,6.0,94,0.00,,---,0.01,VWS V14.00,2013-01-11 16:28:00,
2013-01-11 11:33:00,65.4,63.6,30.21,SSW,208,3.0,4.0,94,0.00,,---,0.01,VWS V14.00,2013-01-11 16:33:00,
2013-01-11 11:38:00,65.7,63.6,30.20,SSW,194,0.0,5.0,93,0.00,,---,0.01,VWS V14.00,2013-01-11 16:38:00,
2013-01-11 11:43:00,65.9,63.8,30.20,SW,232,3.0,7.0,93,0.00,,---,0.01,VWS V14.00,2013-01-11 16:43:00,
2013-01-11 11:48:00,66.3,63.6,30.20,South,191,0.0,7.0,91,0.00,,---,0.01,VWS V14.00,2013-01-11 16:48:00,
2013-01-11 11:53:00,66.8,63.8,30.20,WSW,238,3.0,9.0,90,0.00,,---,0.01,VWS V14.00,2013-01-11 16:53:00,
2013-01-11 11:58:00,67.1,63.4,30.19,South,189,4.0,9.0,88,0.00,,---,0.01,VWS V14.00,2013-01-11 16:58:00,
2013-01-11 12:03:00,67.4,63.7,30.18,SSW,213,3.0,7.0,88,0.00,,---,0.01,VWS V14.00,2013-01-11 17:03:00,
2013-01-11 12:08:00,67.7,63.7,30.18,SW,215,1.0,8.0,87,0.00,,---,0.01,VWS V14.00,2013-01-11 17:08:00,
2013-01-11 12:13:00,67.9,63.6,30.18,SW,227,3.0,8.0,86,0.00,,---,0.01,VWS V14.00,2013-01-11 17:13:00,
2013-01-11 12:18:00,68.2,63.9,30.17,SSW,209,3.0,8.0,86,0.00,,---,0.01,VWS V14.00,2013-01-11 17:18:00,
2013-01-11 12:23:00,68.4,63.7,30.17,SSW,211,4.0,8.0,85,0.00,,---,0.01,VWS V14.00,2013-01-11 17:23:00,
2013-01-11 12:28:00,68.8,64.1,30.17,SSW,206,4.0,8.0,85,0.00,,---,0.01,VWS V14.00,2013-01-11 17:28:00,
2013-01-11 12:33:00,69.2,64.2,30.16,South,191,1.0,7.0,84,0.00,,---,0.01,VWS V14.00,2013-01-11 17:33:00,
2013-01-11 12:38:00,69.3,63.9,30.16,SW,236,2.0,8.0,83,0.00,,---,0.01,VWS V14.00,2013-01-11 17:38:00,
2013-01-11 12:43:00,69.5,64.1,30.16,SW,232,0.0,8.0,83,0.00,,---,0.01,VWS V14.00,2013-01-11 17:43:00,
2013-01-11 12:48:00,69.7,64.0,30.16,WSW,237,3.0,8.0,82,0.00,,---,0.01,VWS V14.00,2013-01-11 17:48:00,
2013-01-11 12:53:00,69.8,64.1,30.16,SW,217,2.0,8.0,82,0.00,,---,0.01,VWS V14.00,2013-01-11 17:53:00,
2013-01-11 12:58:00,70.0,64.3,30.16,SW,214,3.0,8.0,82,0.00,,---,0.01,VWS V14.00,2013-01-11 17:58:00,
2013-01-11 13:03:00,70.1,64.0,30.16,SSW,206,2.0,8.0,81,0.00,,---,0.01,VWS V14.00,2013-01-11 18:03:00,
2013-01-11 13:08:00,70.3,64.2,30.16,SW,222,4.0,8.0,81,0.00,,---,0.01,VWS V14.00,2013-01-11 18:08:00,
2013-01-11 13:13:00,70.7,64.2,30.16,SSW,210,2.0,8.0,80,0.00,,---,0.01,VWS V14.00,2013-01-11 18:13:00,
2013-01-11 13:17:00,71.0,64.2,30.15,SSW,210,2.0,8.0,79,0.00,,---,0.01,VWS V14.00,2013-01-11 18:17:00,
2013-01-11 13:24:00,71.2,64.4,30.15,WSW,249,1.0,1.0,79,0.00,,---,0.01,VWS V14.00,2013-01-11 18:24:00,
2013-01-11 13:29:00,71.2,64.4,30.14,WSW,241,4.0,6.0,79,0.00,,---,0.01,VWS V14.00,2013-01-11 18:29:00,
2013-01-11 13:34:00,71.6,64.4,30.14,South,186,2.0,7.0,78,0.00,,---,0.01,VWS V14.00,2013-01-11 18:34:00,
2013-01-11 14:30:00,73.8,64.6,30.13,SE,128,4.0,7.0,73,0.00,,---,0.01,VWS V14.00,2013-01-11 19:30:00,
2013-01-11 14:35:00,73.7,64.1,30.13,WSW,237,3.0,8.0,72,0.00,,---,0.01,VWS V14.00,2013-01-11 19:35:00,
2013-01-11 14:40:00,73.4,64.2,30.12,SSW,211,0.0,8.0,73,0.00,,---,0.01,VWS V14.00,2013-01-11 19:40:00,
2013-01-11 14:45:00,73.5,64.7,30.13,SW,235,1.0,8.0,74,0.00,,---,0.01,VWS V14.00,2013-01-11 19:45:00,
2013-01-11 14:50:00,73.8,64.6,30.13,SW,228,3.0,8.0,73,0.00,,---,0.01,VWS V14.00,2013-01-11 19:50:00,
2013-01-11 14:55:00,74.2,64.6,30.13,WSW,246,0.0,8.0,72,0.00,,---,0.01,VWS V14.00,2013-01-11 19:55:00,
2013-01-11 15:00:00,74.6,65.0,30.13,WSW,237,4.0,5.0,72,0.00,,---,0.01,VWS V14.00,2013-01-11 20:00:00,
2013-01-11 15:05:00,74.8,64.8,30.12,WSW,242,1.0,5.0,71,0.00,,---,0.01,VWS V14.00,2013-01-11 20:05:00,
2013-01-11 15:10:00,74.8,64.8,30.13,SSW,211,3.0,5.0,71,0.00,,---,0.01,VWS V14.00,2013-01-11 20:10:00,
2013-01-11 15:15:00,74.7,64.7,30.12,WSW,238,2.0,6.0,71,0.00,,---,0.01,VWS V14.00,2013-01-11 20:15:00,
2013-01-11 15:20:00,74.5,64.5,30.13,SW,229,3.0,6.0,71,0.00,,---,0.01,VWS V14.00,2013-01-11 20:20:00,
2013-01-11 15:25:00,74.3,64.3,30.13,WSW,248,2.0,6.0,71,0.00,,---,0.01,VWS V14.00,2013-01-11 20:25:00,
2013-01-11 15:30:00,74.0,64.0,30.13,WSW,239,2.0,2.0,71,0.00,,---,0.01,VWS V14.00,2013-01-11 20:30:00,
2013-01-11 15:35:00,73.9,64.3,30.13,SW,234,1.0,4.0,72,0.00,,---,0.01,VWS V14.00,2013-01-11 20:35:00,
2013-01-11 15:40:00,73.8,64.2,30.13,SW,229,0.0,4.0,72,0.00,,---,0.01,VWS V14.00,2013-01-11 20:40:00,
2013-01-11 15:45:00,73.7,64.1,30.13,SW,229,2.0,4.0,72,0.00,,---,0.01,VWS V14.00,2013-01-11 20:45:00,
2013-01-11 15:50:00,73.7,64.1,30.13,SW,228,0.0,5.0,72,0.00,,---,0.01,VWS V14.00,2013-01-11 20:50:00,
2013-01-11 15:55:00,73.6,64.0,30.13,SSW,208,1.0,5.0,72,0.00,,---,0.01,VWS V14.00,2013-01-11 20:55:00,
2013-01-11 16:00:00,73.7,64.1,30.12,SW,236,3.0,4.0,72,0.00,,---,0.01,VWS V14.00,2013-01-11 21:00:00,
2013-01-11 16:05:00,73.9,63.9,30.12,SW,232,2.0,5.0,71,0.00,,---,0.01,VWS V14.00,2013-01-11 21:05:00,
2013-01-11 16:10:00,74.1,64.1,30.12,SW,217,0.0,5.0,71,0.00,,---,0.01,VWS V14.00,2013-01-11 21:10:00,
2013-01-11 16:15:00,74.0,63.6,30.12,SW,219,2.0,5.0,70,0.00,,---,0.01,VWS V14.00,2013-01-11 21:15:00,
2013-01-11 16:20:00,73.9,63.5,30.12,WSW,249,0.0,7.0,70,0.00,,---,0.01,VWS V14.00,2013-01-11 21:20:00,
2013-01-11 16:25:00,73.7,63.3,30.12,WSW,248,1.0,7.0,70,0.00,,---,0.01,VWS V14.00,2013-01-11 21:25:00,
2013-01-11 16:30:00,73.7,63.3,30.11,WSW,240,1.0,4.0,70,0.00,,---,0.01,VWS V14.00,2013-01-11 21:30:00,
2013-01-11 16:35:00,73.8,63.8,30.12,South,191,4.0,5.0,71,0.00,,---,0.01,VWS V14.00,2013-01-11 21:35:00,
2013-01-11 16:40:00,73.8,63.4,30.12,WSW,240,0.0,5.0,70,0.00,,---,0.01,VWS V14.00,2013-01-11 21:40:00,
2013-01-11 16:45:00,73.7,63.3,30.12,SW,235,3.0,5.0,70,0.00,,---,0.01,VWS V14.00,2013-01-11 21:45:00,
2013-01-11 16:50:00,73.5,63.1,30.12,SW,234,0.0,5.0,70,0.00,,---,0.01,VWS V14.00,2013-01-11 21:50:00,
2013-01-11 16:55:00,73.2,63.2,30.12,SW,234,1.0,5.0,71,0.00,,---,0.01,VWS V14.00,2013-01-11 21:55:00,
2013-01-11 17:00:00,73.0,63.0,30.12,SW,234,2.0,4.0,71,0.00,,---,0.01,VWS V14.00,2013-01-11 22:00:00,
2013-01-11 17:05:00,72.8,63.3,30.12,SW,225,1.0,5.0,72,0.00,,---,0.01,VWS V14.00,2013-01-11 22:05:00,
2013-01-11 17:10:00,72.6,63.5,30.12,SW,225,1.0,5.0,73,0.00,,---,0.01,VWS V14.00,2013-01-11 22:10:00,
2013-01-11 17:15:00,72.4,63.3,30.12,SW,225,0.0,5.0,73,0.00,,---,0.01,VWS V14.00,2013-01-11 22:15:00,
2013-01-11 17:20:00,72.2,63.1,30.12,SW,225,0.0,5.0,73,0.00,,---,0.01,VWS V14.00,2013-01-11 22:20:00,
2013-01-11 17:25:00,72.1,63.4,30.11,SW,225,0.0,5.0,74,0.00,,---,0.01,VWS V14.00,2013-01-11 22:25:00,
2013-01-11 17:30:00,71.8,63.1,30.12,SW,225,0.0,2.0,74,0.00,,---,0.01,VWS V14.00,2013-01-11 22:30:00,
2013-01-11 17:35:00,71.6,63.3,30.12,SW,225,0.0,2.0,75,0.00,,---,0.01,VWS V14.00,2013-01-11 22:35:00,
2013-01-11 17:40:00,71.4,63.1,30.12,SW,225,0.0,2.0,75,0.00,,---,0.01,VWS V14.00,2013-01-11 22:40:00,
2013-01-11 17:45:00,71.2,63.3,30.12,SW,225,0.0,2.0,76,0.00,,---,0.01,VWS V14.00,2013-01-11 22:45:00,
2013-01-11 17:50:00,71.0,63.4,30.12,SW,225,0.0,2.0,77,0.00,,---,0.01,VWS V14.00,2013-01-11 22:50:00,
2013-01-11 17:55:00,70.7,63.1,30.12,SW,225,0.0,2.0,77,0.00,,---,0.01,VWS V14.00,2013-01-11 22:55:00,
2013-01-11 18:00:00,70.3,63.1,30.12,SW,225,0.0,0.0,78,0.00,,---,0.01,VWS V14.00,2013-01-11 23:00:00,
2013-01-11 18:05:00,70.0,62.8,30.12,SW,225,0.0,0.0,78,0.00,,---,0.01,VWS V14.00,2013-01-11 23:05:00,
2013-01-11 18:10:00,69.6,62.8,30.12,SW,225,0.0,1.0,79,0.00,,---,0.01,VWS V14.00,2013-01-11 23:10:00,
2013-01-11 18:15:00,69.3,62.9,30.12,SW,225,0.0,1.0,80,0.00,,---,0.01,VWS V14.00,2013-01-11 23:15:00,
2013-01-11 18:20:00,69.1,63.0,30.12,SW,225,0.0,1.0,81,0.00,,---,0.01,VWS V14.00,2013-01-11 23:20:00,
2013-01-11 18:25:00,68.8,62.7,30.12,SW,225,0.0,1.0,81,0.00,,---,0.01,VWS V14.00,2013-01-11 23:25:00,
2013-01-11 18:30:00,68.7,63.0,30.12,SW,225,0.0,0.0,82,0.00,,---,0.01,VWS V14.00,2013-01-11 23:30:00,
2013-01-11 18:35:00,68.6,62.9,30.12,SW,225,0.0,0.0,82,0.00,,---,0.01,VWS V14.00,2013-01-11 23:35:00,
2013-01-11 18:40:00,68.6,62.9,30.13,SW,225,0.0,0.0,82,0.00,,---,0.01,VWS V14.00,2013-01-11 23:40:00,
2013-01-11 18:45:00,68.6,62.9,30.13,SW,225,0.0,1.0,82,0.00,,---,0.01,VWS V14.00,2013-01-11 23:45:00,
2013-01-11 18:50:00,68.6,62.9,30.13,SW,225,0.0,2.0,82,0.00,,---,0.01,VWS V14.00,2013-01-11 23:50:00,
2013-01-11 18:55:00,68.8,63.1,30.13,SW,225,0.0,2.0,82,0.00,,---,0.01,VWS V14.00,2013-01-11 23:55:00,
2013-01-11 19:00:00,68.8,62.7,30.13,SW,225,0.0,0.0,81,0.00,,---,0.01,VWS V14.00,2013-01-12 00:00:00,
2013-01-11 19:05:00,68.8,62.7,30.13,SW,225,0.0,2.0,81,0.00,,---,0.01,VWS V14.00,2013-01-12 00:05:00,
2013-01-11 19:10:00,68.9,62.8,30.13,SW,225,3.0,3.0,81,0.00,,---,0.01,VWS V14.00,2013-01-12 00:10:00,
2013-01-11 19:15:00,68.9,62.8,30.13,SW,225,0.0,3.0,81,0.00,,---,0.01,VWS V14.00,2013-01-12 00:15:00,
2013-01-11 19:20:00,68.9,62.8,30.13,SW,225,0.0,3.0,81,0.00,,---,0.01,VWS V14.00,2013-01-12 00:20:00,
2013-01-11 19:25:00,68.8,62.7,30.13,SW,225,0.0,3.0,81,0.00,,---,0.01,VWS V14.00,2013-01-12 00:25:00,
2013-01-11 19:30:00,68.7,62.6,30.13,SW,225,0.0,1.0,81,0.00,,---,0.01,VWS V14.00,2013-01-12 00:30:00,
2013-01-11 19:35:00,68.7,62.6,30.14,SW,225,0.0,1.0,81,0.00,,---,0.01,VWS V14.00,2013-01-12 00:35:00,
2013-01-11 19:40:00,68.6,62.5,30.14,SW,225,0.0,1.0,81,0.00,,---,0.01,VWS V14.00,2013-01-12 00:40:00,
2013-01-11 19:45:00,68.5,62.8,30.14,SW,225,0.0,1.0,82,0.00,,---,0.01,VWS V14.00,2013-01-12 00:45:00,
2013-01-11 19:50:00,68.4,62.7,30.14,SW,225,0.0,2.0,82,0.00,,---,0.01,VWS V14.00,2013-01-12 00:50:00,
2013-01-11 19:55:00,68.3,62.6,30.13,SW,225,1.0,2.0,82,0.00,,---,0.01,VWS V14.00,2013-01-12 00:55:00,
2013-01-11 20:00:00,68.1,62.8,30.14,SW,225,0.0,1.0,83,0.00,,---,0.01,VWS V14.00,2013-01-12 01:00:00,
2013-01-11 20:05:00,68.0,62.7,30.13,SW,225,0.0,1.0,83,0.00,,---,0.01,VWS V14.00,2013-01-12 01:05:00,
2013-01-11 20:10:00,67.8,62.5,30.14,SW,225,0.0,1.0,83,0.00,,---,0.01,VWS V14.00,2013-01-12 01:10:00,
2013-01-11 20:15:00,67.7,62.4,30.14,SW,225,0.0,1.0,83,0.00,,---,0.01,VWS V14.00,2013-01-12 01:15:00,
2013-01-11 20:20:00,67.5,62.5,30.14,SW,225,0.0,1.0,84,0.00,,---,0.01,VWS V14.00,2013-01-12 01:20:00,
2013-01-11 20:25:00,67.3,62.3,30.14,SW,225,0.0,1.0,84,0.00,,---,0.01,VWS V14.00,2013-01-12 01:25:00,
2013-01-11 20:30:00,67.1,62.1,30.14,SW,225,0.0,0.0,84,0.00,,---,0.01,VWS V14.00,2013-01-12 01:30:00,
2013-01-11 20:35:00,67.0,62.3,30.14,SW,225,0.0,1.0,85,0.00,,---,0.01,VWS V14.00,2013-01-12 01:35:00,
2013-01-11 20:40:00,66.9,62.2,30.14,SW,225,1.0,2.0,85,0.00,,---,0.01,VWS V14.00,2013-01-12 01:40:00,
2013-01-11 20:45:00,66.9,62.2,30.14,SW,225,0.0,2.0,85,0.00,,---,0.01,VWS V14.00,2013-01-12 01:45:00,
2013-01-11 20:50:00,66.9,62.2,30.14,SW,225,0.0,2.0,85,0.00,,---,0.01,VWS V14.00,2013-01-12 01:50:00,
2013-01-11 20:55:00,67.0,62.3,30.14,SW,225,0.0,2.0,85,0.00,,---,0.01,VWS V14.00,2013-01-12 01:55:00,
2013-01-11 21:00:00,67.0,62.3,30.14,SW,225,0.0,2.0,85,0.00,,---,0.01,VWS V14.00,2013-01-12 02:00:00,
2013-01-11 21:05:00,67.0,62.3,30.14,SW,225,1.0,2.0,85,0.00,,---,0.01,VWS V14.00,2013-01-12 02:05:00,
2013-01-11 21:10:00,66.9,62.2,30.14,SW,225,0.0,2.0,85,0.00,,---,0.01,VWS V14.00,2013-01-12 02:10:00,
2013-01-11 21:15:00,66.9,62.2,30.14,SW,225,0.0,2.0,85,0.00,,---,0.01,VWS V14.00,2013-01-12 02:15:00,
2013-01-11 21:20:00,66.8,62.2,30.14,SW,225,0.0,3.0,85,0.00,,---,0.01,VWS V14.00,2013-01-12 02:20:00,
2013-01-11 21:25:00,66.8,62.2,30.14,SW,225,1.0,3.0,85,0.00,,---,0.01,VWS V14.00,2013-01-12 02:25:00,
2013-01-11 21:30:00,66.7,62.4,30.15,SW,225,0.0,0.0,86,0.00,,---,0.01,VWS V14.00,2013-01-12 02:30:00,
2013-01-11 21:35:00,66.7,62.4,30.15,SW,225,0.0,1.0,86,0.00,,---,0.01,VWS V14.00,2013-01-12 02:35:00,
2013-01-11 21:40:00,66.6,62.3,30.15,SW,225,0.0,1.0,86,0.00,,---,0.01,VWS V14.00,2013-01-12 02:40:00,
2013-01-11 21:45:00,66.5,62.2,30.15,SW,225,0.0,1.0,86,0.00,,---,0.01,VWS V14.00,2013-01-12 02:45:00,
2013-01-11 21:50:00,66.4,62.1,30.15,SW,225,0.0,1.0,86,0.00,,---,0.01,VWS V14.00,2013-01-12 02:50:00,
2013-01-11 21:55:00,66.4,62.4,30.15,SW,225,0.0,1.0,87,0.00,,---,0.01,VWS V14.00,2013-01-12 02:55:00,
2013-01-11 22:00:00,66.4,62.4,30.14,SW,225,0.0,1.0,87,0.00,,---,0.01,VWS V14.00,2013-01-12 03:00:00,
2013-01-11 22:05:00,66.4,62.4,30.14,SW,225,0.0,2.0,87,0.00,,---,0.01,VWS V14.00,2013-01-12 03:05:00,
2013-01-11 22:10:00,66.4,62.4,30.14,SW,225,0.0,2.0,87,0.00,,---,0.01,VWS V14.00,2013-01-12 03:10:00,
2013-01-11 22:15:00,66.4,62.4,30.15,SW,225,0.0,2.0,87,0.00,,---,0.01,VWS V14.00,2013-01-12 03:15:00,
2013-01-11 22:20:00,66.4,62.4,30.15,SW,225,0.0,2.0,87,0.00,,---,0.01,VWS V14.00,2013-01-12 03:20:00,
2013-01-11 22:25:00,66.3,62.3,30.15,SW,225,0.0,2.0,87,0.00,,---,0.01,VWS V14.00,2013-01-12 03:25:00,
2013-01-11 22:30:00,66.3,62.3,30.15,SW,225,0.0,1.0,87,0.00,,---,0.01,VWS V14.00,2013-01-12 03:30:00,
2013-01-11 22:35:00,66.2,62.2,30.15,SW,225,0.0,2.0,87,0.00,,---,0.01,VWS V14.00,2013-01-12 03:35:00,
2013-01-11 22:40:00,66.2,62.2,30.15,SW,225,0.0,3.0,87,0.00,,---,0.01,VWS V14.00,2013-01-12 03:40:00,
2013-01-11 22:45:00,66.2,62.2,30.15,SW,225,1.0,3.0,87,0.00,,---,0.01,VWS V14.00,2013-01-12 03:45:00,
2013-01-11 22:50:00,66.3,62.3,30.15,SW,225,0.0,3.0,87,0.00,,---,0.01,VWS V14.00,2013-01-12 03:50:00,
2013-01-11 22:55:00,66.3,62.0,30.15,SW,225,0.0,3.0,86,0.00,,---,0.01,VWS V14.00,2013-01-12 03:55:00,
2013-01-11 23:00:00,66.3,62.0,30.15,SW,225,0.0,1.0,86,0.00,,---,0.01,VWS V14.00,2013-01-12 04:00:00,
2013-01-11 23:05:00,66.2,61.9,30.15,SW,225,0.0,1.0,86,0.00,,---,0.01,VWS V14.00,2013-01-12 04:05:00,
2013-01-11 23:10:00,66.2,61.9,30.15,SW,225,0.0,2.0,86,0.00,,---,0.01,VWS V14.00,2013-01-12 04:10:00,
2013-01-11 23:15:00,66.3,62.0,30.15,SW,225,0.0,2.0,86,0.00,,---,0.01,VWS V14.00,2013-01-12 04:15:00,
2013-01-11 23:20:00,66.3,62.0,30.15,SW,225,2.0,2.0,86,0.00,,---,0.01,VWS V14.00,2013-01-12 04:20:00,
2013-01-11 23:25:00,66.3,62.0,30.15,SW,225,0.0,3.0,86,0.00,,---,0.01,VWS V14.00,2013-01-12 04:25:00,
2013-01-11 23:30:00,66.4,62.1,30.15,SW,225,1.0,2.0,86,0.00,,---,0.01,VWS V14.00,2013-01-12 04:30:00,
2013-01-11 23:35:00,66.5,62.2,30.15,SW,225,1.0,4.0,86,0.00,,---,0.01,VWS V14.00,2013-01-12 04:35:00,
2013-01-11 23:40:00,66.5,62.2,30.14,SW,225,0.0,4.0,86,0.00,,---,0.01,VWS V14.00,2013-01-12 04:40:00,
2013-01-11 23:45:00,66.6,62.0,30.14,SW,225,0.0,4.0,85,0.00,,---,0.01,VWS V14.00,2013-01-12 04:45:00,
2013-01-11 23:50:00,66.6,62.0,30.14,SW,226,2.0,4.0,85,0.00,,---,0.01,VWS V14.00,2013-01-12 04:50:00,
2013-01-11 23:55:00,66.7,62.0,30.14,SW,227,0.0,4.0,85,0.00,,---,0.01,VWS V14.00,2013-01-12 04:55:00,